Location: *
(43.0409°N, 0.1694°E)
Time: 22:33:22
(UTC+00:00)

Helios 1A - Pass Details

Date: 03 October 2023
Orbit: 572 x 586 km, 98.3° (Epoch: 01 December)

Event Time Altitude Azimuth Distance (km) Brightness Sun altitude
Rises 04:43:58 0° 174° (S) 2,798 6.4 -14.4°
Reaches altitude 10° 04:46:08 10° 177° (S) 1,900 5.5 -14.0°
Maximum altitude 04:50:12 61° 258° (WSW) 666 2.9 -13.3°
Drops below altitude 10° 04:54:18 10° 340° (NNW) 1,904 5.4 -12.5°
Sets 04:56:29 0° 343° (NNW) 2,805 6.3 -12.1°
